Date String (YYYY-MM-DD hh:mm:ss) UTC,Instrument flags,absolute air pressure of the measurement (hPa),sample flow rate (lpm),inlet stack bypass flow (lpm),air temperature of the measurement (°C),ambient temperature measured by the external sensor (°C),aerosol sample conditioner tube jacket temperature (°C),OPC LED temperature (°C),internal box temperature (°C),relative humidity of the measurement (%),span deviation,mass concentration of particles derived from Lorenz-Mie calculation of OPC scattering (μg/m³),mass concentration of particles derived from Lorenz-Mie calculation of OPC scattering (μg/m³),mass concentration of particles derived from Lorenz-Mie calculation of OPC scattering (μg/m³)
DateTimeUTC,F1_M11,P_M11,Q1_M11,Q2_M11,T1_M11,T2_M11,T3_M11,T4_M11,T5_M11,U1_M11,ZSPAN_M11,X2_M11,X0_M11,X1_M11
2023-05-31 14:00:00,SystemResetWarning,0828.4,5.00,000.00,028.3,026.6,000.0,036.7,029.9,27.4,0000.0,0006.00,0016.20,0004.29
2023-05-31 14:01:00,SystemResetWarning,0828.3,5.00,000.00,028.3,026.6,000.0,036.7,029.9,27.5,0000.0,0005.88,0015.90,0004.26
2023-05-31 14:02:00,SystemResetWarning,0828.4,5.01,000.00,028.3,026.6,000.0,036.7,029.9,27.5,0000.0,0005.82,0015.33,0004.24
2023-05-31 14:03:00,SystemResetWarning,0828.3,5.00,000.00,028.3,026.6,000.0,036.7,029.9,27.0,0000.0,0005.81,0014.94,0004.22
2023-05-31 14:04:00,SystemResetWarning,0828.3,4.98,000.00,028.3,026.6,000.0,036.7,029.9,26.2,0000.0,0005.76,0014.32,0004.19
2023-05-31 14:05:00,SystemResetWarning,0828.3,5.00,000.00,028.3,026.6,000.0,036.6,029.9,26.8,0000.4,0005.75,0015.11,0004.17
2023-05-31 14:06:00,SystemResetWarning,0828.4,5.00,000.00,028.3,026.5,000.0,036.6,029.9,27.0,0000.5,0005.69,0015.97,0004.15
2023-05-31 14:07:00,SystemResetWarning,0828.3,5.01,000.00,028.2,026.5,000.0,036.6,029.9,27.2,0000.0,0005.58,0016.19,0004.13
2023-05-31 14:08:00,SystemResetWarning,0828.3,5.00,000.00,028.2,026.5,000.0,036.6,029.9,26.8,0000.2,0005.59,0015.92,0004.10
2023-05-31 14:09:00,SystemResetWarning,0828.3,5.00,000.00,028.2,026.5,000.0,036.6,029.9,26.2,0000.5,0005.52,0016.17,0004.07
2023-05-31 14:10:00,SystemResetWarning,0828.3,5.00,000.00,028.2,026.6,000.0,036.6,029.9,26.5,0001.7,0005.45,0015.41,0004.06
2023-05-31 14:11:00,SystemResetWarning,0828.3,5.00,000.00,028.2,026.6,000.0,036.6,029.9,26.6,0001.9,0005.40,0015.25,0004.03
2023-05-31 14:12:00,SystemResetWarning,0828.3,5.00,000.00,028.2,026.5,000.0,036.6,029.9,27.2,0001.9,0005.42,0016.40,0004.02
2023-05-31 14:13:00,SystemResetWarning,0828.3,5.00,000.00,028.2,026.5,000.0,036.6,029.9,27.4,0001.0,0005.44,0016.88,0004.01
2023-05-31 14:14:00,SystemResetWarning,0828.3,4.99,000.00,028.2,026.6,000.0,036.6,029.9,26.9,0001.2,0005.44,0017.44,0003.98
2023-05-31 14:15:00,SystemResetWarning,0828.3,5.00,000.00,028.2,026.6,000.0,036.6,029.9,27.4,0002.6,0005.45,0017.89,0003.98
2023-05-31 14:16:00,SystemResetWarning,0828.3,5.00,000.00,028.3,026.6,000.0,036.6,029.9,27.2,0003.2,0005.39,0016.94,0003.98
2023-05-31 14:17:00,SystemResetWarning,0828.3,5.01,000.00,028.3,026.7,000.0,036.6,029.9,27.1,0003.6,0005.36,0016.71,0003.95
2023-05-31 14:18:00,SystemResetWarning,0828.3,5.01,000.00,028.3,026.7,000.0,036.6,029.9,26.4,0003.4,0005.34,0017.21,0003.93
2023-05-31 14:19:00,SystemResetWarning,0828.3,5.00,000.00,028.3,026.7,000.0,036.6,029.9,25.5,0003.1,0005.24,0016.82,0003.89
2023-05-31 14:20:00,SystemResetWarning,0828.2,4.99,000.00,028.3,026.7,000.0,036.6,029.9,25.8,0003.2,0005.19,0016.51,0003.88
2023-05-31 14:21:00,SystemResetWarning,0828.2,4.99,000.00,028.3,026.7,000.0,036.6,029.9,25.5,0003.1,0005.20,0016.47,0003.85
2023-05-31 14:22:00,SystemResetWarning,0828.3,5.00,000.00,028.3,026.7,000.0,036.6,029.9,25.8,0003.4,0005.21,0016.33,0003.82
2023-05-31 14:23:00,SystemResetWarning,0828.3,5.00,000.00,028.3,026.7,000.0,036.6,029.9,26.0,0003.2,0005.15,0015.17,0003.78
2023-05-31 14:24:00,SystemResetWarning,0828.2,5.01,000.00,028.3,026.7,000.0,036.6,029.9,26.3,0002.1,0005.12,0014.97,0003.75
2023-05-31 14:25:00,SystemResetWarning,0828.2,5.00,000.00,028.3,026.7,000.0,036.6,029.9,26.4,0001.1,0005.07,0014.78,0003.74
2023-05-31 14:26:00,SystemResetWarning,0828.2,5.00,000.00,028.3,026.7,000.0,036.6,029.9,25.7,0000.0,0005.07,0014.85,0003.72
2023-05-31 14:27:00,SystemResetWarning,0828.2,4.99,000.00,028.3,026.7,000.0,036.6,029.9,25.9,0000.0,0005.06,0015.67,0003.70
2023-05-31 14:28:00,SystemResetWarning,0828.3,4.99,000.00,028.3,026.7,000.0,036.6,029.9,25.7,0000.0,0005.01,0016.17,0003.68
2023-05-31 14:29:00,SystemResetWarning,0828.2,5.01,000.00,028.3,026.7,000.0,036.6,029.9,25.4,0000.0,0005.01,0015.56,0003.67
2023-05-31 14:30:00,SystemResetWarning,0828.3,5.01,000.00,028.3,026.7,000.0,036.6,029.9,25.8,0000.0,0005.04,0015.65,0003.67
2023-05-31 14:31:00,SystemResetWarning,0828.2,5.00,000.00,028.3,026.7,000.0,036.6,029.9,26.2,0000.0,0005.08,0015.81,0003.67
2023-05-31 14:32:00,SystemResetWarning,0828.2,5.00,000.00,028.3,026.7,000.0,036.6,029.9,26.5,0000.0,0005.08,0015.67,0003.68
2023-05-31 14:33:00,SystemResetWarning,0828.2,4.99,000.00,028.3,026.7,000.0,036.6,029.9,26.5,0000.0,0005.06,0016.45,0003.68
2023-05-31 14:34:00,SystemResetWarning,0828.2,4.99,000.00,028.3,026.7,000.0,036.7,029.9,25.9,0000.0,0005.04,0016.63,0003.68
2023-05-31 14:35:00,SystemResetWarning,0828.2,5.00,000.00,028.3,026.8,000.0,036.7,029.9,26.4,0000.0,0004.98,0016.56,0003.67
2023-05-31 14:36:00,SystemResetWarning,0828.3,5.00,000.00,028.3,026.8,000.0,036.7,030.0,25.8,0000.0,0005.00,0017.50,0003.66
2023-05-31 14:37:00,SystemResetWarning,0828.3,4.99,000.00,028.3,026.8,000.0,036.7,030.0,26.0,0000.0,0004.98,0017.01,0003.66
2023-05-31 14:38:00,SystemResetWarning,0828.3,5.00,000.00,028.4,026.8,000.0,036.7,030.0,26.7,0000.0,0004.97,0015.72,0003.66
2023-05-31 14:39:00,SystemResetWarning,0828.3,5.00,000.00,028.4,026.8,000.0,036.7,030.0,25.1,0000.0,0004.99,0014.95,0003.65
2023-05-31 14:40:00,SystemResetWarning,0828.3,5.00,000.00,028.4,026.8,000.0,036.7,030.0,25.4,0000.0,0004.97,0014.59,0003.64
2023-05-31 14:41:00,SystemResetWarning,0828.3,5.00,000.00,028.4,026.9,000.0,036.7,030.0,25.7,0000.0,0004.93,0014.69,0003.62
2023-05-31 14:42:00,SystemResetWarning,0828.3,5.00,000.00,028.4,026.9,000.0,036.7,030.0,26.8,0000.0,0004.94,0014.73,0003.62
2023-05-31 14:43:00,SystemResetWarning,0828.3,5.00,000.00,028.4,026.9,000.0,036.7,030.0,27.0,0000.0,0004.92,0014.52,0003.62
2023-05-31 14:44:00,SystemResetWarning,0828.3,4.99,000.00,028.4,026.9,000.0,036.7,030.0,26.3,0000.0,0004.88,0014.05,0003.62
2023-05-31 14:45:00,SystemResetWarning,0828.3,4.99,000.00,028.4,026.9,000.0,036.7,030.1,24.3,0000.0,0004.86,0013.82,0003.60
2023-05-31 14:46:00,SystemResetWarning,0828.2,5.00,000.00,028.4,027.0,000.0,036.7,030.1,24.4,0000.0,0004.87,0014.66,0003.59
2023-05-31 14:47:00,SystemResetWarning,0828.2,5.00,000.00,028.4,027.0,000.0,036.7,030.1,24.7,0000.0,0004.83,0013.85,0003.57
2023-05-31 14:48:00,SystemResetWarning,0828.2,5.00,000.00,028.5,027.0,000.0,036.7,030.1,24.8,0000.0,0004.78,0013.90,0003.55
2023-05-31 14:49:00,SystemResetWarning,0828.2,5.01,000.00,028.5,027.0,000.0,036.8,030.1,24.9,0000.0,0004.78,0014.23,0003.53
2023-05-31 14:50:00,SystemResetWarning,0828.2,5.00,000.00,028.5,027.0,000.0,036.8,030.1,25.7,0000.0,0004.85,0014.89,0003.52
2023-05-31 14:51:00,SystemResetWarning,0828.2,5.00,000.00,028.5,027.0,000.0,036.8,030.1,25.7,0000.0,0004.86,0015.78,0003.53
2023-05-31 14:52:00,SystemResetWarning,0828.1,5.00,000.00,028.5,027.0,000.0,036.8,030.1,25.5,0000.0,0004.90,0016.57,0003.54
2023-05-31 14:53:00,SystemResetWarning,0828.2,5.01,000.00,028.5,027.0,000.0,036.8,030.1,25.6,0000.0,0004.87,0016.56,0003.54
2023-05-31 14:54:00,SystemResetWarning,0828.2,5.00,000.00,028.5,027.0,000.0,036.8,030.2,25.9,0000.0,0004.94,0016.95,0003.54
2023-05-31 14:55:00,SystemResetWarning,0828.2,5.00,000.00,028.5,027.1,000.0,036.8,030.2,26.2,0000.0,0004.98,0016.64,0003.55
2023-05-31 14:56:00,SystemResetWarning,0828.2,4.99,000.00,028.5,027.1,000.0,036.8,030.2,23.8,0000.0,0004.96,0016.70,0003.55
2023-05-31 14:57:00,SystemResetWarning,0828.2,4.99,000.00,028.5,027.1,000.0,036.8,030.2,23.9,0000.0,0004.94,0015.46,0003.55
2023-05-31 14:58:00,SystemResetWarning,0828.2,4.99,000.00,028.6,027.1,000.0,036.8,030.2,23.3,0000.0,0004.94,0015.54,0003.57
2023-05-31 14:59:00,SystemResetWarning,0828.2,4.99,000.00,028.6,027.1,000.0,036.8,030.2,23.5,0000.0,0004.97,0015.66,0003.58
